Temp
14 15 15 16 16 15 16 16 16 16 16 17 17 18 18 18 18 18 18 18 18 18 18 19 19 19 19 18 18 18 18 17 16 14 15 22 25 24 24 25 25 24 24 23 24 23 23 23 23 24 24 25 24 25 26 27 27 26 26 25 23 24 25 25 26 25 25 25 25 24 25 25 24 24 23 24 24 24 24 26 28 28 28 28 27 27 27 27
14 15 15 16 16 16 16 16 16 16 16 16 17 17 18 18 18 19 19 18 18 18 18 18 19 19 19 19 18 18 17 16 15 14 19 25 25 24 24 24 25 25 24 24 24 24 23 23 24 24 24 25 25 25 26 27 27 26 26 25 24 26 26 26 26 26 25 25 25 25 25 25 24 24 24 24 24 24 24 25 27 28 27 28 28 28 28 27
14 15 16 16 16 16 16 16 16 16 16 16 16 17 17 18 18 19 19 19 18 18 18 18 19 19 19 19 18 18 16 15 17 20 24 26 25 25 24 24 25 25 25 25 25 24 24 24 25 25 24 25 25 26 27 28 27 27 27 25 26 27 27 27 27 26 26 25 25 25 25 25 24 24 24 24 24 24 24 25 27 27 27 27 28 28 28 27
13 15 16 16 16 16 16 16 16 16 16 16 16 16 17 17 18 18 18 18 18 18 18 18 19 19 19 18 18 17 15 17 23 25 26 26 26 25 25 24 24 25 25 25 25 25 25 25 26 26 25 25 26 26 27 28 28 28 27 27 27 28 27 27 27 27 26 25 25 25 25 24 24 24 24 24 24 23 24 26 28 28 27 28 28 28 28 27
11 14 16 16 15 16 16 16 16 16 16 16 16 16 17 18 18 18 18 18 18 18 18 18 19 19 19 18 18 16 16 22 26 26 26 26 26 26 25 25 24 25 25 25 25 25 25 26 26 26 26 25 26 27 28 29 29 28 28 28 29 29 28 27 26 26 26 25 25 25 25 24 24 24 24 25 25 24 24 25 28 29 28 28 28 28 28 27
11 12 15 15 15 15 16 16 16 16 16 16 16 17 17 18 18 18 18 18 18 18 18 18 18 18 18 18 18 16 19 24 26 26 28 27 26 26 25 25 24 24 25 25 25 25 25 25 25 26 26 26 26 27 28 29 30 29 28 29 29 29 28 27 26 26 25 25 25 25 25 25 25 25 25 25 25 25 25 25 27 29 29 29 29 29 28 27
13 14 15 15 15 15 16 16 16 16 17 16 16 17 17 18 18 18 18 18 18 18 17 18 18 18 18 18 17 17 19 24 26 27 27 27 26 26 25 25 24 24 24 24 24 25 25 25 25 26 26 27 27 28 29 30 30 29 29 30 30 29 28 27 26 25 25 25 25 25 25 25 25 25 25 25 25 25 26 25 27 30 30 29 29 29 28 27
14 15 16 15 15 15 16 16 16 17 17 17 17 17 18 18 18 18 18 18 18 18 17 18 18 18 18 17 18 19 21 25 27 27 27 27 26 26 25 24 24 24 24 24 24 25 25 25 26 26 26 27 29 29 30 30 30 30 30 30 30 29 28 27 26 26 26 25 25 25 25 25 25 25 25 25 25 25 25 25 27 30 30 29 29 29 28 27
13 16 16 16 15 16 16 17 17 17 17 17 17 18 18 18 19 19 18 18 18 18 17 18 18 18 18 17 18 22 25 27 28 27 27 27 26 26 25 24 24 24 24 24 25 25 25 26 26 27 27 28 29 30 30 30 30 31 31 32 31 29 28 27 27 26 26 25 25 25 25 25 25 26 26 25 25 25 25 25 27 30 29 29 29 29 28 28
12 15 16 16 15 16 16 17 17 18 18 17 18 18 19 19 19 19 19 18 18 17 18 18 18 18 18 17 19 24 27 28 28 27 27 26 26 26 25 25 25 23 23 24 24 25 26 26 27 28 28 29 30 30 31 30 30 32 32 33 32 30 28 28 27 26 26 25 25 26 25 25 25 25 26 25 25 24 24 25 27 30 29 29 29 29 28 28
13 15 16 15 16 16 16 17 17 18 18 18 18 18 19 19 19 19 19 19 18 18 18 18 18 18 17 18 20 25 28 28 28 27 26 27 27 26 25 25 24 24 24 24 25 26 26 27 28 28 28 30 30 30 31 31 31 32 32 33 32 30 29 28 27 26 26 25 26 26 25 25 25 25 26 26 25 24 24 24 28 30 29 29 29 29 28 28
13 15 15 15 16 16 17 17 18 18 18 18 19 19 20 20 20 20 19 19 19 19 19 18 18 18 17 18 20 25 28 28 28 27 27 27 27 27 26 25 25 24 25 25 25 26 27 27 28 27 28 29 29 30 31 31 32 32 32 32 31 30 29 28 27 26 26 25 26 27 25 25 25 25 26 25 24 24 24 24 28 30 29 29 29 28 28 28
12 14 14 15 16 16 17 17 18 18 19 19 19 20 20 20 21 20 20 20 19 19 19 18 18 17 17 21 24 27 28 28 28 28 27 28 28 27 27 26 26 26 26 26 26 27 27 28 28 28 28 29 29 30 31 31 31 31 32 32 31 29 28 28 27 27 27 26 27 28 25 24 25 26 26 26 24 24 24 25 28 29 29 29 29 28 28 28
12 13 14 15 16 16 17 17 18 18 19 19 20 20 21 21 21 21 20 20 20 20 19 18 18 17 18 23 27 27 28 28 28 28 28 28 28 27 27 27 27 27 27 27 27 28 28 29 29 28 29 29 30 31 31 31 31 31 31 31 30 26 26 28 28 27 27 26 28 28 25 25 27 27 27 26 25 24 24 25 27 29 29 29 29 28 28 28
12 13 14 15 16 17 17 17 18 18 19 19 20 21 22 22 22 21 21 21 20 20 19 18 17 17 19 23 26 27 28 28 28 29 29 29 28 27 27 27 27 27 27 28 28 29 29 29 28 28 29 30 30 30 29 29 30 31 28 26 29 27 26 29 28 28 28 26 27 27 25 26 28 27 27 26 25 24 24 24 26 29 30 29 29 28 28 28
13 14 14 15 16 17 17 17 18 19 19 19 21 22 22 22 22 22 22 21 20 20 19 18 18 18 20 24 27 27 27 28 29 29 29 29 29 28 28 28 27 27 28 28 29 29 29 29 29 29 29 30 30 29 28 27 27 30 27 24 26 27 26 27 28 29 28 26 27 26 26 27 28 28 27 26 25 24 25 25 26 29 30 29 29 28 29 28
13 14 15 15 17 18 18 18 18 19 19 20 21 22 23 23 23 23 22 21 20 20 19 19 18 18 22 25 26 27 28 29 29 29 29 29 29 29 29 28 28 28 28 28 29 29 29 29 29 29 29 29 29 29 26 23 23 26 27 25 26 28 27 26 27 29 28 27 27 26 26 28 28 28 27 27 26 25 26 25 26 29 30 29 29 29 29 28
13 14 15 16 17 18 19 18 18 19 20 21 21 23 23 23 23 22 21 21 19 19 19 19 18 20 23 26 27 27 29 29 29 29 29 29 29 29 29 28 28 28 28 28 28 28 28 28 28 28 28 28 29 28 23 22 23 24 25 25 25 27 28 27 27 28 28 27 28 26 26 28 28 27 26 26 27 26 27 26 26 29 30 29 29 29 29 29
14 14 15 16 17 18 19 19 18 19 20 21 22 23 23 23 22 22 21 20 20 20 21 20 20 23 24 26 27 28 29 29 29 29 29 29 29 29 29 29 28 28 27 27 27 27 28 28 27 26 26 27 28 27 25 26 27 26 26 26 25 25 27 30 30 29 28 27 28 27 27 28 27 26 27 26 26 27 27 26 24 27 30 30 29 29 29 29
15 15 15 16 17 18 19 19 19 19 20 21 22 22 23 22 22 22 21 21 21 22 23 23 22 24 24 26 28 28 29 29 29 29 29 29 29 29 29 29 28 28 27 26 26 27 28 26 25 25 25 27 28 28 28 28 29 28 28 27 26 26 26 31 32 30 29 28 28 29 28 29 27 26 27 26 26 26 26 26 25 26 29 30 29 30 29 29
15 15 16 16 17 18 19 20 20 20 20 21 21 21 22 22 22 22 22 22 22 23 23 23 23 24 25 26 28 29 29 28 28 29 29 29 29 28 28 28 27 27 27 27 26 27 27 25 25 26 27 27 28 29 29 29 29 28 27 26 26 26 26 31 33 30 30 29 28 29 29 29 28 26 27 26 26 26 26 26 26 27 29 30 30 30 30 29
15 15 15 16 17 18 19 20 20 20 21 21 20 20 21 22 23 22 22 22 22 23 23 24 24 24 26 27 28 29 28 27 28 28 29 29 28 28 27 27 27 26 27 27 26 26 25 24 26 27 28 28 28 29 29 29 29 28 28 26 24 26 28 30 33 31 30 29 28 29 29 28 28 27 26 26 26 27 27 28 28 29 29 29 29 30 30 30
14 15 15 15 16 18 19 20 20 20 20 20 19 19 21 23 23 23 23 22 21 23 24 24 25 26 27 28 28 29 28 27 27 28 29 29 28 28 27 27 26 26 27 27 26 24 23 24 27 28 28 28 28 29 29 28 29 28 27 25 24 27 27 26 30 31 29 28 28 29 29 28 29 28 27 27 27 28 28 29 30 29 29 29 30 30 30 30
14 15 15 15 16 17 19 20 20 20 20 21 20 21 23 23 23 23 22 21 21 23 24 25 26 27 28 28 28 28 27 27 28 28 29 29 28 28 27 27 27 26 26 27 26 25 25 27 28 28 28 29 28 28 29 27 27 28 28 26 25 28 28 27 30 31 29 27 27 28 26 25 28 29 28 28 28 29 29 30 29 29 30 29 29 30 30 30
14 15 15 15 15 17 19 19 20 20 20 21 22 22 23 23 23 23 22 21 21 23 25 26 26 27 28 27 28 28 28 28 28 29 30 29 29 28 27 27 27 26 27 27 26 26 26 28 29 28 28 28 28 28 29 28 26 26 28 29 29 30 30 30 32 30 26 23 26 28 23 22 27 28 29 30 29 30 30 30 29 29 29 29 29 29 29 30
14 14 15 14 15 17 19 19 19 19 19 21 22 22 22 23 23 23 22 20 21 24 26 25 26 27 27 27 27 28 27 27 28 29 29 29 29 28 27 27 27 27 28 28 27 27 27 29 29 28 28 28 28 27 29 29 26 24 28 31 31 31 30 30 31 28 23 23 28 30 24 21 25 27 29 30 30 30 29 29 29 29 29 29 29 29 29 29
13 14 15 14 15 15 16 18 18 18 20 21 22 22 22 23 23 22 21 20 21 24 26 25 25 26 27 27 27 27 25 26 28 29 29 29 29 28 27 27 27 27 28 28 26 26 29 29 28 29 29 28 27 27 29 30 26 25 30 32 31 31 31 30 30 27 26 27 28 29 26 22 22 25 30 30 29 30 29 29 29 29 29 28 29 29 29 29
14 14 15 15 15 14 14 16 16 17 20 21 21 22 22 22 22 22 21 20 22 25 25 25 25 26 27 27 27 27 26 27 27 28 29 29 28 28 27 27 27 27 28 27 23 25 29 28 28 29 28 27 27 28 30 30 28 28 32 33 31 32 31 31 30 27 28 27 23 25 27 23 21 25 30 30 29 29 29 29 29 29 29 29 29 29 29 29
15 14 15 15 16 16 15 15 15 17 21 21 21 22 22 22 22 21 20 20 23 25 25 25 25 26 27 27 27 27 27 28 27 28 29 29 28 28 27 27 27 27 28 27 25 26 28 29 29 29 28 28 29 30 31 30 30 31 32 32 32 32 31 31 30 27 26 25 22 23 25 23 22 24 27 28 27 28 29 30 30 29 29 29 29 29 28 29
16 15 15 15 15 16 15 15 18 20 21 21 21 21 22 22 21 20 20 21 23 25 25 25 25 26 26 26 26 27 27 27 28 28 28 28 28 28 28 28 28 27 27 27 27 27 28 29 30 30 30 30 31 31 31 31 31 32 32 31 31 31 31 31 29 27 24 22 23 24 25 24 22 23 26 27 28 29 30 30 30 30 29 29 29 29 29 28
17 16 16 16 16 16 15 17 20 21 21 21 21 21 21 21 21 20 20 23 24 24 25 25 25 26 26 26 26 27 27 28 28 28 27 28 27 26 27 26 26 26 25 26 26 27 28 29 29 30 31 30 31 31 31 31 32 32 32 30 27 27 27 26 25 25 23 22 23 25 27 25 22 23 27 29 31 31 31 30 30 30 29 29 29 29 29 29
18 18 17 17 18 17 17 19 21 21 20 20 20 21 21 21 20 20 21 24 23 23 25 26 26 27 26 26 26 26 27 27 27 27 27 27 25 24 24 24 24 23 22 23 24 25 27 28 28 29 30 29 28 28 29 30 32 31 30 27 23 22 23 23 22 23 22 22 24 26 26 24 23 26 29 30 32 32 31 31 31 30 29 29 29 29 29 29
18 18 19 19 19 19 20 21 21 20 20 20 20 21 21 20 20 21 21 22 22 23 25 26 26 27 26 26 26 26 27 26 27 27 27 26 24 24 24 23 23 23 22 22 22 22 24 26 26 27 28 28 27 25 24 26 29 29 27 25 22 22 22 21 22 22 22 22 24 27 26 23 23 29 32 31 31 32 32 32 31 31 30 29 29 29 29 29
19 19 20 20 20 20 21 21 21 20 19 19 20 21 20 20 20 21 21 22 23 25 25 25 26 26 26 26 25 26 26 26 27 26 25 24 23 22 22 22 23 23 23 22 21 21 22 23 24 25 26 27 27 25 24 25 27 28 30 28 24 22 22 22 22 22 22 22 24 25 25 22 23 29 34 33 32 33 33 32 32 31 30 30 29 29 29 29
19 20 20 21 21 21 21 21 21 20 18 19 20 21 20 20 20 21 21 22 24 24 24 25 25 25 25 25 25 25 25 25 26 24 22 22 21 21 21 21 22 22 22 21 21 21 21 21 24 25 26 26 25 25 27 27 26 28 31 28 24 25 25 22 22 23 22 22 23 23 24 25 28 32 35 33 32 33 32 33 32 31 30 30 29 29 29 29
20 21 21 21 21 22 22 22 21 20 18 20 21 20 20 20 21 22 22 23 24 24 24 24 24 23 23 24 25 25 25 25 25 24 21 21 21 21 21 21 22 22 22 21 21 21 20 21 24 25 26 26 24 25 27 26 25 27 27 25 27 30 28 23 22 23 23 22 23 23 23 26 29 32 34 33 32 33 33 32 32 31 30 29 29 29 29 29
20 20 20 21 22 23 23 22 21 20 19 20 20 20 22 22 22 23 23 23 23 24 23 22 22 22 21 22 23 24 24 24 25 23 22 21 21 20 21 21 22 22 22 22 21 21 21 21 23 24 24 24 24 26 27 26 26 25 24 25 28 30 29 25 22 22 22 21 22 23 23 24 24 27 33 35 33 32 33 32 32 31 30 29 29 29 29 29
17 18 19 21 23 23 23 23 21 21 20 21 20 21 22 22 23 23 23 23 23 23 22 21 22 22 21 21 21 22 23 23 23 23 21 21 20 20 20 21 22 22 22 22 21 21 21 21 22 23 22 23 25 26 25 25 26 25 24 26 26 24 24 24 22 22 22 21 22 23 23 23 23 25 31 34 34 33 33 33 32 31 30 29 29 29 29 29
16 18 20 23 24 24 24 23 22 22 21 20 20 21 22 22 23 23 23 23 23 23 22 21 22 22 21 21 21 22 22 21 21 22 20 20 19 20 21 21 21 21 21 21 20 20 21 21 21 22 22 23 25 24 22 22 24 25 25 26 26 24 23 23 23 23 22 21 22 22 22 23 25 28 30 32 34 33 32 32 32 31 30 30 30 29 29 29
16 18 21 23 24 24 24 23 22 21 21 21 21 22 23 22 22 23 23 23 23 23 22 22 21 21 21 21 21 21 22 21 21 20 20 19 19 19 20 21 21 21 21 21 19 19 20 20 20 21 22 22 22 22 21 21 22 23 22 23 23 24 24 24 24 24 22 22 22 22 22 23 26 29 29 29 30 31 31 33 32 31 31 30 30 30 30 30
15 19 22 23 24 24 24 23 21 21 21 21 22 22 23 22 22 22 22 23 23 23 22 21 21 20 20 21 21 21 21 21 20 20 19 19 19 19 19 20 20 21 20 20 19 19 19 19 19 19 20 20 20 21 22 22 22 23 22 22 22 22 22 22 22 23 23 22 22 22 22 22 26 28 29 29 29 29 30 32 32 32 31 31 30 30 30 30
16 20 22 23 24 23 23 22 21 21 21 22 22 22 22 22 22 22 22 22 22 22 22 22 21 20 20 21 21 20 20 20 20 19 19 18 18 18 19 20 20 20 20 19 18 19 19 19 18 18 19 19 20 21 22 22 23 24 23 23 23 23 22 20 20 21 22 22 22 23 22 23 27 28 28 28 29 28 30 32 33 32 31 31 31 31 31 30
16 19 22 23 23 23 23 21 21 22 22 22 22 22 22 22 22 21 21 22 21 21 22 21 20 20 20 20 20 20 20 20 19 19 19 18 18 19 19 20 20 20 19 18 18 19 19 19 18 18 18 19 20 22 22 22 22 22 21 22 22 22 22 22 22 22 21 21 21 22 21 23 26 28 28 28 28 28 29 31 33 32 32 31 31 31 31 31
15 15 19 22 23 23 22 21 21 21 21 22 22 21 22 21 21 21 21 21 21 21 21 20 20 20 20 20 20 19 19 19 19 19 19 18 18 19 20 20 20 20 19 19 19 19 19 18 17 17 17 18 19 21 20 20 20 20 20 21 22 22 23 23 23 22 21 21 21 21 21 22 25 27 28 28 28 27 28 29 31 32 32 32 31 31 31 31
15 16 19 21 22 22 21 21 20 20 20 21 21 21 21 21 21 21 21 21 21 21 20 20 20 20 19 19 19 18 18 18 18 18 18 18 18 19 19 20 20 20 20 20 20 20 19 18 17 17 16 16 17 18 18 18 18 19 20 21 22 22 22 22 21 21 21 21 21 21 21 22 25 27 27 26 26 26 27 27 29 30 31 31 31 31 31 31
17 18 19 20 20 20 20 21 21 20 20 20 20 20 20 20 20 21 21 20 20 21 21 20 20 20 19 19 18 17 18 18 18 17 17 17 18 18 19 19 20 20 20 21 20 20 19 18 18 17 16 16 16 17 18 18 18 19 20 20 21 22 22 22 21 20 21 21 21 21 21 21 24 25 25 24 24 24 25 26 27 27 28 28 28 28 28 28
17 18 18 18 19 20 20 20 20 19 19 19 19 19 19 18 19 20 20 20 20 20 20 19 19 18 18 18 18 17 17 18 18 17 17 17 17 18 19 19 19 20 20 20 20 19 18 17 18 18 17 17 17 17 18 19 19 19 20 20 21 21 22 21 20 21 21 20 20 22 22 21 22 23 22 22 22 21 22 24 25 26 26 26 26 26 26 25
17 18 17 17 18 19 19 19 19 19 19 19 19 19 18 18 18 18 19 20 19 19 19 18 18 18 18 18 18 17 17 17 17 17 17 17 17 18 18 19 19 19 20 19 19 19 17 17 18 18 17 18 18 18 19 19 19 20 20 20 21 21 21 21 21 22 22 20 21 22 23 22 21 22 21 21 21 20 20 22 23 24 25 25 25 25 25 24
16 17 17 17 18 18 18 19 19 18 18 19 18 18 17 17 17 17 18 19 18 18 18 17 17 18 18 18 18 17 17 16 16 17 17 17 17 17 17 18 18 19 19 19 19 18 17 17 18 17 17 17 18 18 19 19 19 19 20 20 21 21 21 21 22 22 22 22 22 23 23 22 21 21 21 21 20 20 20 20 21 22 23 23 23 23 23 23
15 15 15 15 17 19 19 19 18 18 18 18 17 17 17 16 16 17 18 18 17 17 18 17 17 18 18 18 18 17 16 17 16 17 17 17 17 17 17 17 18 19 19 18 18 18 17 17 17 17 16 16 17 18 18 18 18 18 19 20 21 21 21 22 22 23 23 22 23 23 22 22 21 21 21 21 20 20 20 19 20 20 21 22 22 21 22 22
13 14 14 15 17 19 18 18 17 17 17 17 17 17 17 16 16 17 17 17 17 17 17 17 17 18 17 17 17 17 17 18 17 17 18 17 17 18 17 18 18 18 18 18 18 18 17 17 17 17 15 15 17 17 17 18 18 17 18 20 21 21 21 21 22 23 22 22 22 22 21 21 21 21 21 21 20 19 19 19 19 19 20 20 20 20 21 21
13 14 14 15 17 18 17 17 17 16 16 16 17 16 16 16 16 17 16 17 17 17 17 18 18 17 17 17 17 17 18 18 18 18 18 18 18 18 18 18 18 18 18 18 18 17 17 17 16 16 15 15 16 16 16 17 16 17 19 20 20 20 20 20 21 22 22 22 22 21 20 21 20 20 21 20 19 18 18 18 18 19 19 19 19 20 20 20
Height
813 811 810 808 806 804 803 801 799 797 796 794 792 791 790 789 787 787 786 784 782 780 779 777 776 776 775 774 774 773 772 771 770 770 768 760 758 761 762 764 765 766 767 769 771 772 774 775 776 777 780 781 782 780 778 777 777 785 796 805 808 805 801 794 792 791 791 793 791 791 790 795 801 797 792 792 796 799 800 797 791 788 789 790 792 795 798 801
813 811 809 807 805 803 802 800 799 797 795 793 791 790 789 788 787 785 784 783 781 779 778 776 775 775 774 773 773 772 771 769 769 768 762 756 757 760 761 763 765 766 766 767 769 770 772 774 774 777 781 783 781 778 778 776 776 787 795 802 803 796 791 784 784 784 786 790 789 790 790 791 797 796 794 798 802 802 805 804 797 795 795 794 794 796 799 801
812 810 808 806 804 802 801 799 798 796 794 792 791 789 788 787 786 784 783 782 780 778 777 776 775 774 773 773 772 771 770 768 767 763 757 755 758 759 760 762 763 765 765 766 768 769 770 772 773 777 781 785 781 778 780 776 777 782 789 801 796 785 784 780 778 779 780 784 786 790 789 790 794 793 797 802 805 806 807 805 799 799 798 797 796 796 798 801
812 810 808 805 804 802 800 798 797 795 793 791 789 788 787 786 784 783 782 780 779 777 776 775 775 774 773 772 772 771 769 769 765 758 755 756 757 758 759 761 762 764 765 766 768 769 770 771 773 775 781 786 780 778 780 775 776 780 784 793 785 777 782 779 775 774 775 780 783 787 789 794 793 790 795 800 807 811 806 799 793 793 794 794 795 795 797 800
811 809 807 805 803 801 799 797 795 794 792 790 788 787 786 785 784 782 781 779 777 776 775 775 774 773 773 772 772 770 769 773 765 755 756 756 755 757 758 760 762 764 764 766 767 768 770 771 773 776 781 785 782 781 779 770 770 778 778 777 774 774 779 777 773 773 773 777 782 786 790 794 792 790 793 795 805 807 799 795 790 787 787 788 791 793 796 799
811 808 806 804 801 800 798 796 794 793 791 789 787 786 785 784 782 781 780 778 776 776 775 774 774 773 773 771 771 769 770 773 761 753 756 754 755 756 757 759 761 763 764 765 766 768 770 771 775 780 781 782 782 780 776 767 767 779 776 769 770 770 775 776 772 773 774 778 784 785 785 787 791 794 792 793 798 796 790 790 787 785 785 786 789 791 794 798
810 807 805 803 800 799 796 795 793 791 790 788 786 784 783 782 781 780 778 777 776 775 775 774 773 773 772 771 770 770 771 766 754 753 754 753 755 755 757 759 760 763 763 764 765 767 770 773 777 778 780 782 779 775 772 767 766 776 776 768 768 767 771 773 771 773 774 778 780 780 782 786 792 794 792 794 794 789 786 786 784 784 785 788 790 792 794 797
809 806 804 802 799 797 795 793 791 790 788 786 785 783 782 781 780 779 777 776 775 774 774 773 773 772 771 770 770 770 769 760 751 753 753 752 754 754 757 758 759 761 761 763 763 765 768 773 775 774 781 779 772 771 768 769 770 772 772 765 764 766 768 769 770 774 774 775 776 778 785 787 788 788 790 795 792 787 785 784 784 784 786 789 791 794 795 798
807 805 803 801 798 796 793 791 789 788 786 784 783 782 780 779 778 778 776 775 774 773 773 772 772 770 770 769 770 770 763 753 751 752 752 752 753 753 755 755 757 759 759 762 761 765 768 770 771 769 776 773 767 768 765 773 776 766 763 761 762 766 767 768 772 775 775 775 774 780 787 786 784 785 790 791 787 786 786 786 785 785 788 790 791 793 795 797
806 804 802 800 797 795 792 790 788 786 784 782 781 780 779 778 777 776 775 774 773 772 772 772 771 770 770 768 770 769 756 749 751 751 751 752 752 753 754 754 755 756 758 760 760 763 763 764 763 761 769 768 765 766 763 770 769 757 756 756 757 762 764 767 772 774 776 776 773 780 789 786 782 787 794 790 784 786 790 790 787 786 789 790 791 793 794 797
805 802 800 798 796 794 791 788 786 784 782 780 779 778 777 776 775 774 773 773 772 771 771 771 770 770 769 768 771 765 751 749 751 749 751 751 751 752 752 753 753 754 756 758 759 759 758 759 758 761 769 765 763 765 761 760 758 754 755 756 755 760 765 767 772 774 776 778 774 776 787 787 785 791 793 788 784 787 791 794 789 787 789 789 791 793 794 797
804 802 799 797 795 792 790 787 785 783 780 778 777 775 774 774 773 773 772 771 770 770 770 770 770 769 768 770 768 758 748 750 750 749 751 750 750 751 750 751 752 753 755 756 757 756 757 757 758 767 768 763 767 769 761 753 753 754 754 762 763 763 770 770 771 773 774 780 773 774 793 797 793 793 791 786 786 788 793 796 790 787 789 789 791 793 794 796
803 800 798 796 793 791 789 786 783 781 779 776 774 772 772 771 771 771 770 769 769 769 769 769 769 768 769 767 758 749 748 750 750 750 750 749 750 750 750 751 751 753 754 754 755 755 757 757 759 765 761 763 770 764 755 750 753 756 755 762 769 775 780 771 770 773 774 778 768 772 797 803 794 789 786 783 784 790 795 795 790 787 789 789 791 793 794 795
802 800 797 794 792 790 787 785 783 780 777 774 772 771 770 769 769 769 768 768 768 768 768 768 768 767 769 762 749 747 749 748 749 749 749 749 750 751 751 751 751 753 753 754 754 755 757 757 758 760 758 761 762 756 756 758 758 761 762 763 771 785 786 771 768 773 778 778 766 772 793 795 788 785 783 781 780 788 795 794 790 788 788 789 790 793 794 794
801 798 796 793 791 788 786 784 781 778 776 772 770 768 767 767 767 766 766 766 766 767 766 767 767 767 769 761 748 747 749 747 749 748 748 749 749 750 750 750 752 752 753 754 754 755 755 755 758 763 760 755 756 763 770 770 764 765 773 777 773 779 782 773 767 767 775 777 769 777 791 788 783 781 780 780 781 788 795 796 792 788 786 787 789 792 794 794
800 797 795 792 789 787 785 782 780 777 774 770 768 766 765 765 764 763 764 764 765 766 766 767 766 767 769 761 748 747 748 747 747 746 747 748 748 749 749 750 750 752 754 753 754 754 753 755 757 759 759 759 764 773 778 780 777 771 777 784 777 774 780 780 772 762 765 775 776 781 788 786 780 774 775 778 782 787 793 796 793 788 785 785 788 790 792 793
799 796 793 791 788 785 783 781 779 776 772 769 767 764 762 762 760 761 762 763 765 764 765 766 765 767 764 753 749 750 746 745 745 745 746 746 747 748 749 750 750 751 752 752 754 754 754 758 760 759 761 765 768 774 786 796 792 781 777 781 777 772 776 781 778 768 764 772 778 782 785 781 773 769 771 774 778 785 790 793 792 785 782 784 785 788 790 792
798 795 792 790 787 784 782 780 777 774 771 769 766 763 761 760 759 760 761 762 763 764 766 766 766 771 766 752 751 750 745 744 744 744 745 745 746 747 748 750 749 751 755 757 757 757 759 760 763 769 770 770 771 777 793 797 789 784 782 781 779 773 772 776 778 771 768 773 775 782 786 778 772 771 771 770 770 777 783 788 791 785 781 782 783 786 788 789
797 795 792 789 786 783 780 778 776 774 770 767 765 763 760 759 759 759 760 762 764 766 767 765 764 768 765 754 747 746 743 743 744 744 745 745 745 746 747 748 749 753 762 768 766 762 764 767 771 779 780 777 775 777 785 784 778 779 778 779 781 777 773 770 768 761 763 774 775 777 781 776 774 774 771 769 765 770 776 781 789 787 780 780 782 783 784 787
796 794 791 788 785 782 779 777 776 774 771 768 765 762 762 764 766 765 762 761 762 762 761 760 759 759 758 751 744 744 743 742 743 743 744 744 744 746 747 749 753 758 765 772 772 763 764 777 782 781 781 777 773 772 774 773 772 774 777 778 778 778 774 764 761 756 755 770 773 768 772 773 773 772 768 769 768 770 774 777 783 783 778 778 779 780 781 783
796 793 790 787 784 781 779 776 775 774 771 770 767 767 768 770 774 773 766 760 756 755 756 754 754 755 752 748 743 742 744 745 744 742 743 743 744 751 754 754 762 768 767 768 769 763 767 783 784 775 773 770 768 768 768 770 771 773 777 780 778 776 771 760 757 754 750 763 770 765 770 771 770 771 767 767 772 772 771 773 776 776 774 774 775 777 778 780
795 792 789 786 783 780 778 775 774 773 771 770 769 770 770 769 770 770 768 767 758 751 753 750 749 751 746 743 742 741 747 752 749 744 743 743 746 755 759 759 767 771 766 765 771 774 780 784 777 768 766 765 766 765 767 770 771 773 776 780 781 772 767 761 752 749 750 762 769 765 769 772 767 768 767 766 768 767 765 765 766 767 770 772 773 774 776 778
794 791 789 786 782 779 777 775 773 772 771 770 770 770 769 768 767 765 767 772 764 751 750 750 749 749 745 744 741 741 749 754 754 748 741 744 750 753 758 763 767 768 767 769 775 783 789 781 767 761 762 764 767 765 767 771 771 774 775 780 780 768 769 772 759 754 758 768 773 767 770 774 769 770 770 765 763 762 762 761 760 761 764 766 767 769 772 775
793 790 788 785 781 778 776 774 773 772 771 770 770 769 769 768 766 765 766 771 770 756 747 746 745 745 745 744 740 744 751 750 751 748 740 744 751 751 757 762 765 769 769 768 771 779 781 768 757 760 762 764 769 767 767 773 775 772 770 774 774 764 766 770 762 759 765 777 778 773 784 786 774 775 774 766 764 763 761 761 761 761 759 762 764 765 768 770
792 790 788 784 781 777 774 773 772 772 771 769 770 769 768 768 765 765 767 774 775 760 747 744 744 744 741 741 742 743 748 748 746 744 738 741 748 752 757 757 761 770 768 765 770 775 771 757 752 761 764 764 769 770 766 770 776 773 765 761 761 759 760 762 759 761 777 795 782 773 802 805 778 775 775 766 766 766 763 762 763 762 760 762 764 765 766 767
792 789 786 784 781 776 773 772 771 772 770 769 769 768 767 767 766 765 770 781 780 760 751 750 748 746 742 742 742 741 753 755 742 738 738 740 742 748 758 757 758 765 762 760 765 767 762 752 751 759 763 764 768 770 763 762 774 776 759 748 750 753 757 760 759 764 779 788 770 760 792 805 785 777 773 765 767 767 765 765 764 763 761 761 762 762 763 764
791 788 785 783 780 777 775 773 773 773 771 770 769 768 767 766 766 765 772 791 785 759 754 755 749 747 744 743 741 747 764 759 743 740 738 740 741 743 758 761 760 762 755 759 770 765 756 754 755 757 761 765 769 769 759 755 770 771 750 741 747 750 755 757 758 764 765 764 765 761 772 796 797 780 767 765 771 772 769 767 764 761 760 759 759 758 758 759
789 786 784 781 780 779 777 775 775 772 771 771 768 767 767 765 766 766 779 798 783 755 753 754 747 744 743 742 742 749 757 752 753 751 736 738 743 745 759 761 760 762 754 763 779 767 753 757 758 757 762 766 765 761 751 750 763 758 740 739 744 745 750 752 754 762 758 761 779 773 766 794 803 776 762 766 772 775 770 764 761 759 757 757 756 756 755 755
787 785 782 779 778 778 776 775 774 772 771 769 767 768 766 764 766 770 786 795 773 753 754 752 748 747 745 746 748 749 749 749 756 751 737 740 743 744 757 756 755 761 755 760 771 762 753 753 751 753 761 760 754 749 744 748 755 745 736 738 740 742 746 749 754 758 760 769 784 777 768 788 795 774 768 774 774 771 763 756 754 753 754 754 753 754 753 753
784 783 780 778 776 776 776 774 772 771 770 768 768 767 763 766 771 782 796 789 768 759 756 753 753 751 750 755 755 751 751 752 750 746 744 747 744 744 750 748 751 759 758 758 761 758 751 746 744 747 751 748 744 743 739 742 743 737 739 744 745 746 745 749 754 756 770 781 777 769 764 775 786 777 769 767 759 751 749 751 752 751 752 752 751 751 751 752
781 780 779 776 775 775 775 773 770 770 769 768 768 764 765 771 778 792 795 774 764 766 758 756 757 752 754 760 760 756 754 753 750 751 755 754 754 757 757 757 759 763 767 766 762 757 751 750 749 744 742 742 742 742 738 736 736 739 746 751 757 759 753 757 760 762 782 789 771 761 759 768 782 775 761 751 737 732 738 743 745 746 747 746 747 747 747 749
779 778 776 774 773 773 773 771 769 769 769 768 767 765 770 779 786 794 785 766 770 774 762 759 758 753 756 758 759 758 757 757 754 756 760 762 767 771 771 774 773 776 782 779 773 766 756 755 754 745 741 746 751 753 750 740 737 744 750 757 772 781 779 781 781 779 787 782 764 758 758 766 770 757 748 742 730 728 732 731 733 736 739 740 741 742 742 744
777 775 774 773 772 772 771 769 769 769 769 767 768 768 774 788 794 789 781 775 777 771 759 758 756 753 757 760 762 759 757 761 758 757 760 764 773 776 775 775 773 779 785 782 782 780 768 760 757 753 750 750 757 767 772 763 752 753 755 761 778 791 800 804 796 790 790 774 756 752 757 768 764 743 734 733 725 722 724 725 728 729 731 735 734 736 740 741
776 774 774 772 771 771 769 769 768 769 769 767 770 773 780 795 793 782 781 780 771 762 759 760 758 756 758 762 764 759 761 765 760 762 768 771 781 786 783 780 775 777 780 782 789 790 786 779 768 767 764 758 759 767 773 769 761 755 749 754 769 778 791 801 795 791 788 773 758 754 761 770 762 738 722 719 715 714 716 718 721 724 726 729 733 737 741 742
775 773 772 771 770 770 768 768 768 768 770 769 772 780 790 799 792 783 784 778 768 766 764 761 761 764 764 763 762 760 765 768 763 770 780 784 793 795 793 791 784 780 783 791 795 793 796 790 772 767 765 761 764 762 758 761 763 754 745 755 766 763 767 780 782 777 776 778 771 762 761 756 742 725 712 713 713 711 714 715 718 724 725 729 736 739 739 740
774 772 771 770 769 768 767 768 768 769 771 772 778 788 792 793 787 782 780 773 770 771 769 767 768 774 776 771 768 764 763 766 766 775 786 789 796 798 796 794 789 785 788 795 799 798 800 791 770 764 762 761 767 763 756 765 770 760 756 762 757 745 751 770 778 767 770 789 782 763 760 750 738 729 714 713 719 714 713 716 718 721 724 729 734 734 735 736
774 771 770 769 768 767 767 767 768 770 771 775 786 789 784 782 780 777 774 770 770 770 773 781 780 781 785 782 779 773 768 769 770 778 788 792 798 802 798 795 790 787 788 791 796 797 798 792 776 770 770 765 762 759 756 761 767 773 776 768 751 743 748 764 780 779 783 798 783 762 763 760 756 748 720 713 724 720 715 714 715 719 723 727 728 727 729 729
775 773 771 769 768 767 766 767 768 770 772 779 788 786 779 779 776 773 772 771 771 771 779 790 786 782 788 790 790 782 775 779 778 781 792 798 805 806 801 798 792 788 787 787 793 796 795 796 785 775 778 772 759 761 766 762 760 773 777 765 762 771 769 768 782 789 793 801 787 767 764 761 759 750 727 716 719 718 715 711 713 718 720 722 723 723 725 725
777 776 773 769 768 767 767 769 768 770 777 784 789 786 780 779 775 772 773 772 773 776 783 788 785 785 789 791 793 787 783 789 789 789 797 805 811 807 800 800 797 792 790 789 798 800 796 803 797 779 777 777 768 775 791 786 769 765 769 767 769 777 777 773 776 779 787 796 791 779 772 763 754 744 734 726 717 714 715 710 709 713 713 713 716 717 721 723
778 779 776 769 768 769 767 768 770 775 783 785 785 783 779 780 778 774 773 772 774 779 784 787 787 791 793 790 792 791 789 793 795 798 803 808 813 810 803 801 800 797 794 792 801 802 799 809 808 789 780 783 787 792 800 801 791 783 786 788 786 781 776 773 769 766 775 787 789 788 781 767 755 747 741 734 724 717 714 707 704 704 703 704 706 709 714 716
781 783 778 769 769 770 767 771 776 779 784 783 782 781 780 780 781 778 775 774 776 779 781 786 790 794 795 793 793 794 793 796 798 803 809 811 814 815 809 803 802 800 799 800 806 808 808 813 813 807 798 796 799 796 791 794 794 793 797 798 797 794 790 793 788 772 769 776 777 780 780 769 756 748 741 735 726 717 708 703 701 699 698 700 701 703 706 709
784 785 778 770 771 770 770 777 779 778 782 783 782 782 781 781 783 783 780 778 780 781 781 785 790 794 796 795 795 796 797 802 804 806 813 816 816 817 811 804 802 801 804 811 812 807 808 814 818 818 810 803 799 792 788 789 784 786 794 796 796 796 797 809 811 793 782 778 769 768 773 767 751 740 738 734 725 713 701 694 693 694 693 695 697 698 700 702
790 787 776 771 772 769 773 783 783 780 782 781 780 782 782 783 786 786 785 784 786 786 787 791 793 795 798 797 797 799 800 806 810 810 814 817 816 814 809 805 804 804 807 814 814 807 808 817 824 821 810 800 792 786 784 785 786 795 800 797 798 799 798 801 801 795 794 792 787 785 781 768 749 738 737 732 723 713 702 690 687 689 690 690 693 695 697 699
794 790 780 774 771 769 778 789 789 788 787 783 784 787 786 787 789 790 790 790 790 791 794 797 796 797 800 799 800 804 805 810 815 813 814 818 816 812 808 806 806 807 808 812 813 811 815 823 829 830 825 815 805 801 799 796 800 810 810 802 800 798 795 794 791 792 796 796 799 802 795 777 757 744 739 733 725 720 712 699 690 689 691 691 692 694 696 699
794 792 785 778 773 774 782 787 788 792 793 790 793 794 792 792 791 791 793 792 792 792 796 799 797 797 800 801 804 808 808 811 817 818 818 820 817 812 810 808 807 807 807 807 805 807 817 824 828 836 844 841 834 831 827 820 815 815 811 806 801 798 797 798 799 802 801 796 796 801 800 784 762 749 745 740 734 730 723 711 699 695 697 697 698 701 703 705
796 797 793 786 780 781 786 784 785 791 795 796 799 800 799 800 796 791 792 795 795 793 796 799 798 799 803 804 809 815 813 812 816 819 822 823 820 816 812 810 808 806 805 804 803 807 817 823 825 832 839 841 838 834 828 825 823 819 813 808 803 800 798 799 806 809 803 800 797 793 793 786 770 761 758 752 748 745 737 726 715 709 707 705 706 708 710 714
799 802 803 799 794 791 792 790 789 793 795 797 802 804 804 806 803 798 796 798 799 797 799 802 803 807 812 811 813 819 818 815 816 819 822 822 819 815 810 807 808 807 805 806 807 812 823 827 825 827 831 829 828 825 820 820 821 817 813 810 805 802 798 801 809 805 800 806 803 785 783 788 781 773 769 764 760 757 752 743 733 726 719 713 712 713 715 720
801 803 803 803 803 801 801 799 796 797 798 798 803 806 808 810 811 810 805 801 801 800 804 810 810 811 814 813 815 820 820 820 821 821 820 818 816 815 812 810 810 810 810 812 812 815 827 831 825 825 829 825 822 820 817 817 817 813 810 809 805 802 800 802 802 796 796 806 801 782 779 787 786 779 773 768 765 765 763 756 747 739 731 722 719 720 723 726
804 805 803 801 803 803 803 800 797 800 802 803 806 810 813 816 817 815 810 808 809 807 809 816 818 814 812 812 815 822 824 825 828 824 821 821 820 820 822 820 816 813 813 815 816 816 824 828 824 824 828 826 822 819 816 815 815 813 810 807 803 801 799 797 795 791 791 795 790 781 781 784 785 782 775 767 766 767 765 761 756 751 745 736 730 730 732 732
810 812 809 806 805 802 800 800 801 805 807 808 812 814 815 818 820 817 813 814 818 816 813 818 819 815 814 815 817 823 825 824 828 826 823 825 825 824 826 824 820 817 816 817 818 818 823 827 823 823 829 830 823 819 818 817 817 817 813 806 801 800 797 794 792 788 787 789 784 781 785 786 780 778 774 768 766 768 768 765 763 763 758 749 742 739 739 739
813 813 812 811 809 804 804 806 806 810 814 814 817 818 818 820 821 818 816 815 818 820 818 818 818 816 817 819 821 824 821 819 822 821 820 823 824 822 823 821 819 820 820 819 819 819 823 827 823 825 835 834 826 823 823 819 817 819 816 806 802 802 800 796 791 786 786 788 785 785 793 792 781 775 775 771 768 771 773 769 768 770 767 760 754 749 747 745
813 812 811 812 812 810 810 811 811 815 819 819 818 819 820 821 819 818 820 819 816 817 817 816 817 818 821 824 823 820 817 815 816 816 815 817 816 816 817 816 815 818 820 819 820 820 822 826 827 830 837 835 828 827 826 824 826 825 814 805 804 803 800 797 791 786 785 783 785 791 793 788 780 776 776 775 773 774 776 773 772 773 772 768 764 759 755 751
Wind_Speed
24 24 24 24 24 24 25 26 26 26 24 22 20 18 18 18 20 20 21 22 22 21 20 18 16 14 13 11 9 9 12 12 9 5 7 8 9 10 11 13 11 17 16 10 11 11 10 9 11 12 8 6 5 4 6 7 3 2 1 1 2 2 2 3 3 2 1 1 3 7 6 6 7 4 0 1 3 3 4 4 4 10 11 15 23 32 35 34
25 25 25 25 25 25 25 26 26 26 25 23 20 18 18 18 19 20 21 23 22 20 19 18 15 13 10 8 8 9 12 11 8 8 10 5 13 15 11 10 10 17 16 11 14 14 10 8 9 9 5 3 4 5 6 6 6 3 2 2 3 2 3 5 4 4 3 2 4 6 6 6 7 6 2 2 4 4 4 1 7 14 15 17 26 32 31 33
27 27 27 27 26 26 26 26 26 26 25 24 21 19 18 18 19 20 21 23 22 20 19 17 14 11 8 7 8 9 11 7 4 6 6 8 17 17 12 10 10 15 16 14 16 17 12 11 11 8 5 4 4 6 7 5 6 4 3 2 4 3 4 4 5 6 6 5 6 6 5 5 6 7 3 2 6 5 4 8 11 16 19 20 22 27 29 31
26 28 28 29 29 28 27 27 27 27 26 24 21 20 19 18 19 20 22 23 21 19 17 15 12 9 7 7 8 9 7 3 2 3 4 8 14 15 15 13 11 12 12 13 16 17 12 9 11 9 6 5 5 7 7 5 5 3 5 5 4 5 4 3 5 4 8 7 6 7 5 5 4 5 5 5 8 5 6 8 12 21 23 23 21 24 27 28
26 27 28 29 29 30 29 28 28 28 27 25 22 20 20 19 19 20 22 22 19 17 15 12 10 9 9 9 8 7 4 2 2 4 4 6 11 13 15 14 14 12 10 12 14 14 10 5 5 7 6 5 6 6 6 7 6 3 7 9 4 6 5 5 5 4 8 7 6 7 6 7 4 4 6 8 7 6 6 7 8 21 23 23 24 23 24 24
26 27 27 28 29 30 30 29 29 29 28 26 23 21 20 19 19 20 21 20 17 15 12 9 9 11 11 10 7 4 1 1 4 6 3 5 10 12 15 15 16 14 13 14 13 10 7 3 2 5 5 5 7 7 6 8 8 5 7 8 6 6 6 6 6 6 7 8 7 6 5 6 6 5 5 7 6 5 7 5 8 19 22 24 25 21 21 21
28 28 27 28 29 30 30 30 30 30 29 27 24 22 21 20 19 20 20 19 16 13 11 7 8 12 13 9 4 1 1 3 6 7 4 5 9 11 13 15 17 17 15 14 11 8 5 5 5 5 6 6 7 7 7 7 9 9 7 7 9 8 9 8 7 7 8 8 7 5 5 5 5 5 4 4 3 3 5 4 7 19 23 24 21 18 19 20
29 29 28 29 29 30 30 30 30 30 30 28 26 24 22 20 20 19 18 18 15 12 10 7 10 14 12 5 1 1 1 4 6 8 6 6 8 11 14 16 19 19 17 16 14 10 5 6 8 5 6 7 5 6 7 6 7 10 10 8 8 8 11 11 8 7 8 6 7 6 5 5 3 4 5 4 0 4 3 3 6 18 22 20 18 17 18 18
29 29 29 29 30 31 30 30 30 31 31 30 27 24 22 21 20 18 17 16 14 12 9 8 12 13 8 3 1 1 2 3 5 9 7 7 8 10 16 17 21 21 17 18 17 12 6 6 9 7 6 7 6 6 6 5 5 8 10 8 7 10 13 14 11 10 8 5 8 8 4 5 4 3 3 5 3 3 1 4 7 18 20 17 17 17 17 17
29 29 28 29 30 31 30 30 30 31 31 31 29 25 23 22 20 18 16 16 14 12 8 8 11 9 5 2 2 1 3 2 4 8 7 7 5 8 16 16 21 24 17 15 16 13 9 8 7 5 6 7 5 6 6 5 4 6 7 7 8 13 14 14 14 12 8 5 10 9 5 5 4 2 1 4 5 4 1 7 8 19 20 18 16 15 16 17
29 29 29 29 30 30 30 30 30 31 31 32 30 26 24 22 20 17 16 16 14 10 6 7 9 6 3 2 2 2 4 0 2 8 8 7 4 7 12 12 19 24 17 12 15 17 16 12 6 3 4 4 4 6 6 4 5 8 7 6 6 14 14 14 15 13 9 6 9 10 7 4 3 0 1 4 6 7 3 8 11 19 18 17 16 14 14 14
29 30 30 29 29 29 30 30 31 31 32 32 30 27 24 21 19 17 17 16 12 7 4 5 6 3 2 2 3 5 2 2 1 5 8 5 2 5 7 8 17 24 18 11 14 21 20 16 10 5 5 4 4 5 5 4 6 7 5 4 5 13 13 14 14 13 10 6 10 11 7 3 4 4 4 8 8 8 7 8 12 19 17 15 15 13 12 14
29 30 30 29 29 29 29 30 31 31 32 32 30 27 24 21 18 17 19 15 8 5 4 4 3 1 2 0 6 5 3 1 1 3 9 8 5 7 6 5 12 20 20 13 15 20 18 16 11 7 8 7 4 4 6 5 6 7 4 2 5 9 9 11 11 12 8 6 15 11 4 5 8 9 7 10 9 9 8 7 10 17 15 14 13 12 12 14
29 30 30 30 29 28 29 30 31 32 33 33 30 27 23 20 17 18 19 12 6 3 3 3 1 2 3 4 8 7 5 3 4 5 9 9 9 10 9 8 11 17 19 16 15 14 14 16 12 8 8 6 4 4 7 5 4 5 5 3 3 5 7 11 11 13 8 6 15 7 1 6 9 10 7 9 11 10 9 6 9 15 15 13 12 13 13 13
29 30 30 30 29 29 29 30 32 33 33 33 29 25 22 19 19 20 17 10 5 3 3 3 2 4 2 6 9 7 4 4 6 9 8 8 9 10 11 14 14 16 17 16 13 12 15 16 10 6 5 4 2 4 5 4 3 2 2 4 1 3 6 10 12 15 11 7 13 6 0 4 6 9 8 11 13 11 10 8 9 15 17 15 13 14 13 12
30 31 30 30 30 29 30 31 33 33 33 32 28 23 21 20 19 16 11 7 4 4 3 1 3 4 1 4 5 5 4 5 6 7 8 8 6 6 11 17 16 16 18 16 14 13 14 11 5 4 4 2 2 2 3 4 4 2 2 3 2 3 5 7 10 14 11 10 11 8 2 2 4 10 10 13 17 15 14 12 12 16 17 15 14 14 13 13
31 31 31 31 31 30 30 32 33 33 32 29 26 23 19 16 13 10 5 3 3 4 3 0 2 2 1 4 4 4 4 6 3 1 4 5 5 4 7 9 9 12 14 14 12 10 8 5 3 2 2 2 1 1 1 3 3 3 1 3 3 4 4 5 8 10 8 12 12 11 6 3 7 11 10 12 18 17 15 13 13 15 16 14 14 15 14 14
31 32 32 32 32 31 30 32 34 33 31 27 25 22 15 10 6 2 3 5 3 1 1 2 1 2 2 4 3 2 2 3 0 2 2 4 5 3 3 3 4 7 6 5 6 5 2 1 1 2 2 2 2 3 3 3 4 3 3 2 3 4 2 3 7 9 10 10 13 14 10 6 8 10 9 10 15 17 15 9 7 10 14 14 14 15 14 15
32 32 33 33 33 31 30 32 33 33 31 26 24 18 10 9 5 4 7 6 3 1 1 1 2 1 2 5 5 3 2 1 1 1 3 4 5 3 1 2 3 6 4 1 3 3 2 1 1 1 2 4 5 4 5 4 5 5 4 2 4 5 4 3 5 11 16 11 12 16 10 8 12 9 8 9 12 16 14 10 4 8 12 13 14 14 14 16
31 32 33 32 33 31 30 31 31 31 29 25 24 16 7 7 4 2 1 2 3 4 5 3 5 3 5 6 5 4 5 4 2 4 6 7 6 2 1 1 2 4 4 3 4 3 3 2 3 4 5 5 6 6 6 6 8 8 6 5 6 7 7 4 4 11 18 13 11 14 11 12 16 11 8 8 7 9 12 13 11 12 12 12 14 15 15 16
31 32 32 32 32 31 29 29 29 28 23 20 20 10 2 3 2 3 5 3 5 7 8 9 8 7 10 11 7 2 2 2 1 3 7 10 9 4 1 2 3 2 3 5 4 1 4 4 5 7 7 7 7 6 7 8 10 9 6 6 7 7 8 7 4 12 18 13 9 11 10 13 17 14 9 7 7 8 11 15 17 17 14 12 15 16 15 13
31 31 32 32 31 31 28 27 27 21 16 17 14 4 3 3 2 2 4 4 7 5 6 10 8 8 12 14 10 2 3 1 4 4 6 7 7 4 2 1 3 3 4 5 3 1 3 4 8 9 8 8 8 7 8 9 10 9 5 5 6 6 6 7 5 13 15 7 7 12 11 11 15 16 13 9 8 11 14 16 17 18 16 13 14 16 15 13
31 31 32 31 31 30 27 27 22 13 14 18 13 7 7 5 6 6 4 1 7 6 5 6 5 5 6 6 4 2 4 1 3 4 5 5 3 3 4 3 5 4 4 5 4 4 3 5 10 11 9 8 9 9 8 8 7 7 6 5 7 7 3 3 3 9 8 3 3 7 5 4 10 14 14 13 12 12 14 15 14 15 16 16 16 15 15 16
30 31 30 31 31 28 27 25 14 10 16 16 11 10 9 9 10 9 3 1 4 6 5 6 5 3 2 1 1 4 3 2 2 4 4 5 2 2 4 4 5 3 4 7 7 6 6 9 10 9 8 9 8 8 7 6 5 6 7 7 8 9 6 3 1 3 4 9 6 2 4 3 5 11 13 14 16 14 13 14 13 13 15 15 15 15 15 16
30 30 29 31 30 27 27 18 8 15 18 9 8 15 14 12 14 10 3 1 3 5 4 3 2 1 0 1 3 2 1 2 2 4 3 5 3 2 1 2 3 3 5 8 8 6 7 11 8 7 9 8 8 8 7 6 4 6 7 9 11 11 10 6 3 4 4 2 6 6 3 4 4 8 11 12 15 14 12 14 14 14 14 13 14 15 15 15
31 29 29 29 28 28 22 7 8 19 13 4 11 19 16 13 15 11 4 3 2 3 2 0 0 1 1 1 3 2 3 2 4 2 2 5 3 3 1 2 0 2 4 4 5 3 6 10 8 8 10 10 9 8 8 7 5 5 6 8 11 9 8 7 5 5 4 4 10 9 5 3 3 6 10 11 13 13 11 13 14 13 13 13 14 14 15 15
31 30 29 28 26 25 14 4 13 16 5 5 15 18 14 14 16 12 4 3 3 1 1 1 1 0 1 0 2 4 2 4 4 3 1 4 3 3 2 2 1 2 2 2 0 2 4 7 7 6 7 8 7 7 9 8 5 5 7 8 9 7 6 6 5 5 4 3 6 7 5 3 2 6 10 11 11 11 12 14 14 14 15 15 15 15 16 17
31 31 29 26 23 17 9 8 13 9 4 10 15 15 15 16 15 7 4 2 2 0 1 1 1 1 2 1 2 2 3 3 0 4 3 5 2 3 1 4 2 3 3 3 0 5 3 2 3 2 1 4 5 8 11 8 6 6 9 9 8 7 5 4 4 4 3 3 4 6 6 4 3 6 8 11 12 13 15 17 17 17 17 16 16 16 16 17
31 31 28 26 21 9 5 9 9 6 8 12 12 15 18 17 10 4 4 2 1 0 1 1 1 2 1 2 1 1 2 2 3 4 3 2 1 2 2 5 2 2 4 2 3 6 3 2 4 3 2 3 4 8 11 8 6 7 9 10 8 6 3 1 2 2 2 4 4 8 6 4 4 4 7 9 11 14 16 17 18 18 17 16 16 16 15 15
31 30 26 24 18 6 5 10 8 4 10 11 13 19 18 10 4 4 3 2 2 1 1 1 2 1 2 2 2 2 1 2 2 1 2 2 3 3 0 2 2 2 3 1 2 5 4 3 3 3 3 4 4 5 6 8 8 6 5 7 7 5 3 2 2 2 3 1 5 8 9 7 4 3 7 10 15 19 17 14 14 16 16 16 15 15 15 14
30 28 23 20 15 6 5 6 3 4 7 11 17 17 10 4 3 3 3 2 1 2 1 1 2 1 3 1 2 1 0 0 1 2 2 4 6 6 4 4 4 3 4 5 4 6 6 3 2 4 1 2 4 4 3 2 4 4 1 1 3 5 4 4 4 3 2 4 6 6 7 8 5 4 8 14 20 21 18 16 18 19 20 18 16 16 15 15
28 23 17 13 11 7 6 3 3 4 7 12 15 9 4 4 2 1 1 2 1 2 2 1 1 0 1 2 1 1 1 1 2 3 3 3 5 6 6 5 3 2 3 3 3 6 6 3 3 4 2 8 7 4 6 6 3 1 1 5 3 3 3 3 3 1 3 4 6 5 5 4 5 5 10 18 21 18 15 15 17 21 22 19 18 18 16 15
24 19 11 7 9 9 8 6 5 5 9 14 10 3 4 4 2 2 2 3 1 1 2 1 2 2 3 4 3 1 2 1 2 3 4 5 6 6 10 11 8 3 1 1 3 4 4 4 7 6 4 8 8 6 5 6 6 4 1 3 2 1 1 2 3 2 2 5 6 4 4 2 4 5 10 18 21 18 14 14 15 18 20 21 19 18 16 15
21 15 9 7 10 10 9 7 6 7 12 12 6 3 5 4 2 3 3 3 2 2 4 4 5 4 3 3 0 2 4 2 3 6 7 7 6 5 8 13 14 6 1 3 3 2 2 2 5 7 4 6 8 6 1 4 6 5 3 5 3 4 3 3 2 1 3 5 5 1 2 3 4 5 8 15 18 17 15 14 15 16 17 17 15 13 13 14
18 11 7 9 11 10 8 6 5 7 8 6 5 4 5 3 2 3 3 3 3 4 7 6 3 2 3 2 1 3 3 1 4 8 9 8 6 5 5 7 12 9 3 3 2 2 2 3 4 3 1 4 10 8 5 5 5 4 1 4 2 4 4 2 3 4 3 2 4 2 1 4 5 6 7 9 12 14 15 14 14 15 15 13 11 12 14 14
18 11 6 8 9 6 4 3 4 5 2 4 5 4 4 2 1 2 2 3 2 4 6 6 6 4 3 3 3 3 3 2 3 5 6 7 8 8 5 4 9 9 5 3 1 3 2 4 6 6 2 7 11 11 6 5 4 4 3 0 5 5 5 2 3 2 2 1 4 3 3 4 3 6 6 6 10 13 14 14 15 16 15 15 13 14 15 15
19 14 7 8 6 0 3 2 3 4 2 5 4 3 2 1 1 1 3 4 3 4 4 4 5 4 3 4 4 5 5 3 3 3 2 4 6 8 6 5 8 10 7 3 2 1 1 4 5 7 6 7 12 11 3 4 4 2 3 6 7 3 3 3 1 2 1 1 4 4 4 4 3 4 7 3 9 14 16 15 15 16 16 16 16 16 17 18
16 13 8 6 1 5 5 4 4 3 3 4 3 3 2 2 2 1 2 4 4 5 5 4 3 4 5 4 4 7 7 4 4 4 3 3 3 6 6 5 7 11 11 7 2 1 2 3 4 7 8 9 11 8 4 7 9 5 2 7 5 2 1 1 1 1 1 1 3 4 4 3 2 4 7 8 8 12 16 17 15 16 17 17 17 17 19 18
10 6 4 4 3 5 5 4 4 3 5 3 3 2 2 3 4 4 4 4 3 4 4 2 3 5 6 5 3 6 8 7 5 4 4 4 2 4 7 5 6 10 11 9 5 3 3 3 4 5 9 9 7 5 4 9 13 10 7 8 5 2 3 1 2 3 2 2 3 3 4 3 3 4 6 10 11 7 13 16 14 17 19 19 18 17 17 17
5 2 2 5 3 3 3 3 3 5 3 1 2 2 2 3 5 8 9 8 4 3 3 4 4 5 5 6 5 4 5 6 6 4 4 4 2 3 8 6 6 9 8 9 8 4 4 4 4 6 9 6 3 5 5 6 9 10 9 8 7 6 3 2 3 2 2 3 3 1 3 3 2 6 10 12 15 10 9 15 14 17 20 20 19 18 18 17
4 3 3 6 5 1 1 3 3 3 1 1 3 3 4 5 6 9 12 10 6 4 5 6 6 5 3 5 5 4 4 5 5 4 3 4 4 3 7 7 6 6 5 7 8 5 3 2 3 5 6 4 2 3 5 6 5 2 2 4 6 6 4 3 4 3 1 2 4 3 4 3 4 6 9 12 15 15 9 15 15 15 20 19 18 19 19 18
3 2 4 9 9 3 3 4 2 1 2 2 4 4 5 5 6 8 9 9 8 5 5 6 6 6 4 4 4 4 4 4 5 5 5 7 8 4 6 9 7 5 3 3 3 4 2 1 3 4 4 7 8 6 5 6 4 2 3 4 6 6 4 3 3 5 4 3 2 2 4 3 6 9 11 12 14 18 10 15 18 16 18 19 18 19 20 19
2 3 7 16 14 4 3 5 3 2 4 3 6 7 6 6 5 7 7 8 6 5 5 6 6 6 6 6 6 6 5 4 6 7 6 6 7 6 7 10 8 5 4 2 3 5 3 2 3 5 5 6 8 4 1 5 6 4 4 7 7 7 7 5 4 3 3 3 4 2 3 3 8 11 13 14 15 19 15 8 15 15 16 18 18 19 18 18
2 4 6 18 20 5 3 4 2 3 5 4 8 7 6 5 5 6 7 6 5 4 3 5 5 6 5 5 7 8 7 5 6 7 6 3 4 6 8 8 7 5 3 1 1 2 2 2 3 4 5 6 7 5 4 7 8 4 4 8 8 9 10 8 4 1 1 1 2 1 3 3 9 10 11 16 18 20 20 12 1 5 8 12 15 14 14 14
3 1 5 12 20 11 4 2 2 4 5 6 7 6 4 3 4 6 6 5 5 5 3 3 5 6 6 6 7 9 8 6 4 5 5 3 2 4 6 5 4 3 4 5 4 2 1 2 3 3 2 2 3 4 4 6 6 4 6 9 10 11 12 8 4 3 1 1 2 0 2 6 11 12 13 18 20 20 22 19 12 8 6 3 4 4 5 5
2 3 3 6 10 7 3 3 4 5 4 4 4 4 4 3 4 7 8 5 5 6 5 5 6 7 7 7 7 7 8 7 4 3 3 2 1 1 4 4 4 5 7 10 10 4 2 2 2 4 4 4 5 5 5 5 6 7 8 11 11 11 10 7 3 2 2 4 5 2 2 7 13 14 16 18 19 20 21 21 17 13 13 13 11 11 11 9
2 2 3 3 4 4 5 5 5 5 4 4 2 3 7 8 6 7 7 5 6 6 6 7 8 8 7 7 5 4 5 5 5 4 3 2 1 1 5 6 8 10 11 10 7 4 3 2 1 3 4 5 7 7 7 7 7 8 9 9 11 11 10 7 5 4 3 4 6 5 1 7 10 10 12 14 15 17 19 21 18 14 12 13 15 16 17 16
2 0 1 1 1 2 3 4 4 7 7 6 3 4 9 10 8 7 6 5 7 7 4 6 9 9 8 7 4 3 5 5 5 6 5 5 5 6 8 8 7 9 9 6 4 3 3 1 2 1 2 5 5 6 8 8 7 8 8 8 11 12 10 8 8 8 5 2 6 9 6 5 6 8 10 10 12 14 15 18 18 16 14 14 17 18 17 16
3 1 3 2 1 1 2 2 5 9 9 6 5 6 8 8 8 6 5 4 6 7 6 6 7 8 8 7 5 4 4 3 4 5 4 5 6 4 4 4 4 5 4 3 2 2 3 1 3 3 4 5 6 7 9 9 9 9 8 8 9 10 11 10 11 11 8 6 9 11 6 2 2 6 7 8 9 9 10 14 18 19 19 17 17 17 16 15
3 1 4 3 3 4 3 4 5 7 7 6 5 6 7 7 6 5 4 5 5 6 7 6 6 8 8 7 6 5 3 3 2 3 2 4 4 2 0 2 2 4 3 1 1 1 3 2 4 3 3 4 6 7 9 10 10 10 10 9 8 10 11 10 9 10 8 6 7 7 4 1 2 4 4 6 9 9 11 15 17 18 18 17 17 16 15 15
5 3 3 2 2 5 4 4 5 5 4 5 3 4 5 6 5 3 4 7 6 5 5 6 6 7 7 8 7 4 4 3 2 3 3 2 2 2 2 2 2 3 3 1 1 1 2 1 3 4 3 3 5 8 11 12 12 10 8 7 7 8 9 8 8 9 6 3 4 5 2 1 4 5 3 5 9 10 11 13 13 13 16 17 17 16 14 14
10 5 5 3 2 5 4 3 5 4 4 4 3 4 5 4 4 4 3 5 7 6 5 5 6 4 4 5 4 1 3 3 3 4 5 4 5 5 4 5 5 3 2 1 1 1 2 1 1 2 1 3 4 6 8 9 9 6 4 3 8 9 9 8 5 5 4 1 1 1 1 2 5 4 4 6 8 10 9 10 10 10 13 16 16 15 14 12
Wind_Direction
354 354 353 354 357 358 360 1 0 357 355 351 347 343 340 339 340 344 345 343 341 338 336 332 329 333 331 333 334 330 327 320 318 246 231 259 209 171 159 170 170 165 158 159 174 166 172 202 207 202 206 208 214 241 223 211 174 115 138 176 227 223 187 207 214 179 143 177 124 118 122 117 116 122 353 56 45 50 28 345 128 118 120 135 140 147 152 149
352 353 352 351 353 355 357 358 359 357 356 352 347 344 341 340 340 343 344 343 341 338 338 337 339 344 340 340 339 332 328 317 305 251 241 213 166 167 153 159 184 179 170 171 183 174 171 194 196 192 199 222 218 227 229 189 162 177 167 177 234 214 177 190 188 180 162 137 125 110 122 137 128 123 171 194 114 110 113 141 147 126 128 137 144 152 152 146
352 352 351 349 350 353 354 356 357 357 355 351 346 343 342 341 341 342 343 343 339 337 338 340 347 353 356 348 341 334 328 321 296 254 233 166 166 175 165 169 185 182 184 184 186 186 184 184 185 184 193 229 230 229 235 177 171 197 159 208 241 176 157 184 184 177 158 142 130 122 133 131 113 114 141 170 129 146 170 179 167 139 141 148 151 156 152 147
350 350 350 348 349 350 351 353 355 356 354 351 346 343 342 341 342 341 342 341 336 336 339 346 359 7 6 349 342 336 329 342 291 220 170 169 181 181 175 183 187 189 197 192 191 194 202 196 187 190 198 225 234 234 234 188 180 184 176 216 217 155 141 182 195 166 139 138 129 127 124 103 98 123 133 145 144 166 217 219 171 146 151 154 154 160 154 149
348 348 348 348 347 348 349 350 352 354 353 350 346 341 340 341 342 342 342 340 334 336 342 356 15 12 359 345 339 331 338 40 240 207 152 171 186 185 183 184 188 201 208 202 200 201 220 241 207 204 207 227 233 231 228 208 202 202 211 215 186 151 147 174 188 142 124 125 119 132 136 124 133 146 143 164 176 175 197 250 182 152 155 154 156 161 154 151
346 345 346 347 346 346 347 348 349 352 352 349 345 340 339 340 341 342 341 340 335 335 345 1 15 3 346 339 334 319 27 70 230 212 161 159 177 181 181 182 191 204 207 201 200 201 216 235 228 214 211 231 227 223 225 213 209 227 237 217 197 167 149 173 169 131 128 133 139 149 139 131 140 141 150 174 191 180 172 235 196 158 155 155 157 159 155 152
346 346 345 346 345 344 345 346 347 349 350 348 343 339 338 338 339 342 341 340 337 333 342 349 354 346 336 335 331 340 109 263 239 208 166 141 170 179 178 185 194 200 200 194 189 191 191 192 213 221 222 232 227 232 234 221 216 227 246 220 204 177 152 167 159 139 144 141 137 132 124 137 140 129 146 174 210 220 175 227 202 159 156 157 158 160 155 152
346 347 345 346 344 343 343 343 345 347 348 346 342 336 336 336 337 340 340 339 336 331 335 335 336 336 333 331 314 10 235 244 215 185 163 140 159 179 184 189 197 197 196 194 190 186 176 197 219 224 233 232 224 233 235 240 232 229 241 227 198 171 155 156 148 149 151 132 123 125 126 142 143 129 144 139 232 264 200 249 210 161 158 160 159 160 154 152
345 346 346 346 344 342 342 342 343 344 345 344 340 334 333 334 335 339 339 338 337 331 327 326 330 336 343 322 245 24 232 220 183 173 158 151 155 180 191 193 197 194 193 198 194 189 179 199 214 213 236 246 242 244 242 243 238 236 243 233 190 160 154 150 148 156 157 140 136 138 140 147 164 185 150 129 148 229 264 286 213 162 160 164 161 161 156 154
343 345 346 346 343 341 340 341 341 342 342 341 337 332 330 331 333 337 336 334 333 328 321 323 333 346 357 334 76 84 224 215 188 185 162 160 151 173 191 197 196 190 188 194 193 197 200 206 213 221 254 259 254 255 249 233 254 269 264 249 196 161 151 149 149 156 157 161 154 149 160 154 148 197 181 137 148 139 14 290 214 163 163 165 162 162 158 156
343 345 346 345 342 340 340 340 339 340 339 338 336 330 327 328 330 334 333 330 326 323 317 319 338 360 14 28 96 189 237 288 187 191 169 167 152 163 184 195 193 187 182 185 196 205 213 230 249 284 276 265 271 270 261 249 289 290 284 286 190 150 145 149 150 157 154 169 170 142 134 130 89 356 253 133 133 126 149 260 207 165 165 166 160 161 159 158
343 345 346 344 342 340 339 339 338 338 337 336 333 327 325 325 327 331 330 327 321 316 305 318 345 12 35 35 197 218 260 46 131 183 178 198 223 169 174 188 191 188 182 179 204 211 218 238 251 261 261 287 303 280 284 296 314 306 296 304 149 140 152 156 152 163 159 169 173 134 112 163 172 197 184 137 136 138 164 238 201 166 165 166 160 160 162 161
343 346 346 344 342 341 340 338 337 337 336 334 330 325 324 322 323 327 326 323 320 310 290 318 345 18 66 288 234 253 309 308 281 188 186 221 235 177 172 192 194 192 186 187 208 212 221 239 246 252 259 277 285 279 305 313 318 317 310 291 144 138 163 161 150 166 163 169 176 152 118 206 202 201 172 141 148 152 170 223 193 167 166 167 161 161 166 164
344 346 345 344 343 342 340 338 337 336 335 332 328 324 322 320 319 321 319 313 310 303 268 308 318 134 100 259 270 301 304 243 237 207 186 209 203 180 187 194 197 195 191 201 220 227 243 257 261 261 257 254 263 300 313 318 325 313 313 312 156 150 175 164 159 166 153 178 190 177 99 198 200 201 175 149 159 156 168 206 190 172 168 169 163 164 169 169
345 346 345 345 343 342 341 339 337 336 335 332 328 324 321 320 316 312 309 295 288 269 253 306 224 161 64 282 290 319 281 209 221 219 203 204 184 179 195 191 195 200 197 209 232 251 262 268 268 259 250 254 305 333 323 325 320 295 302 312 267 164 174 166 173 174 153 175 205 207 144 203 193 179 158 153 161 156 166 194 202 182 171 169 165 166 171 172
346 346 346 345 344 343 341 339 338 338 336 332 329 326 322 319 311 304 296 275 258 230 233 334 189 175 66 281 292 320 254 205 225 224 204 206 190 185 197 191 194 200 203 213 230 248 258 268 273 255 244 240 284 308 336 340 319 329 165 254 266 176 170 165 186 192 157 147 203 230 210 195 174 161 147 150 159 161 171 192 205 186 174 171 165 168 173 172
345 346 347 346 345 343 340 339 339 339 337 334 331 329 329 325 307 291 280 242 220 212 223 341 154 172 273 277 281 291 238 198 214 177 158 197 211 201 192 193 193 191 202 216 231 244 249 259 264 269 249 191 196 173 341 302 281 315 250 233 262 213 190 162 180 200 169 148 184 218 227 203 166 159 152 149 154 162 176 193 206 188 174 173 166 170 175 174
343 345 346 346 345 342 340 339 340 341 338 333 333 334 341 353 330 266 131 131 127 120 237 281 95 100 277 276 269 242 182 166 117 50 133 183 190 180 159 190 190 170 181 217 237 241 221 249 274 311 306 218 216 162 177 231 219 249 263 257 290 274 257 172 166 178 181 178 181 194 221 207 157 156 166 159 154 167 176 176 210 201 176 171 170 172 175 177
343 344 345 345 343 341 338 338 341 343 337 333 341 347 4 20 31 111 119 127 112 74 294 245 174 95 323 272 269 265 279 305 301 242 223 203 187 195 162 170 171 150 143 181 238 226 189 259 320 276 270 225 226 201 189 235 248 255 277 282 286 290 276 207 184 177 174 187 190 185 200 180 158 164 181 181 166 171 172 152 188 219 184 171 175 174 174 179
343 343 344 343 341 338 337 337 340 342 338 338 346 355 18 22 22 52 53 161 192 235 267 254 207 263 308 282 291 312 314 314 229 214 223 198 168 162 323 46 90 148 146 159 207 216 170 189 239 224 229 223 232 227 207 242 269 277 296 296 288 288 280 257 217 193 176 181 200 188 181 167 165 173 182 185 173 166 169 165 182 206 190 174 177 177 174 179
342 343 343 341 339 336 335 335 338 343 342 343 350 358 17 11 22 318 322 282 248 233 250 260 236 251 263 259 277 324 355 349 278 235 206 178 143 124 296 41 88 186 194 177 186 191 153 185 232 227 225 227 232 233 224 238 257 267 274 278 284 274 271 284 248 202 184 182 199 185 175 169 167 174 179 174 175 185 182 178 185 192 187 176 177 180 176 175
342 342 341 340 337 334 334 333 337 344 349 349 354 360 281 329 86 353 334 305 288 262 252 270 260 256 252 251 262 244 103 31 304 278 194 162 130 146 198 134 157 209 219 194 171 134 173 213 231 227 226 229 236 235 228 235 244 255 259 258 272 268 276 302 257 195 183 190 210 188 176 168 166 172 181 181 184 195 194 189 186 181 179 178 177 179 177 172
342 341 341 341 336 333 332 333 336 348 354 344 332 314 315 350 32 2 355 291 292 288 259 263 258 255 253 250 257 123 100 158 258 253 199 145 119 168 157 166 197 203 201 197 176 153 188 239 230 223 219 220 234 237 228 233 239 244 247 245 258 261 260 307 272 184 161 11 300 192 166 147 160 170 183 191 193 195 198 196 186 175 176 180 179 177 176 175
341 340 341 340 336 333 332 333 341 358 348 336 324 335 355 10 11 6 17 182 287 288 250 240 244 234 218 209 162 111 115 221 204 223 194 135 127 170 149 180 199 203 207 199 193 181 206 234 227 219 224 224 231 241 234 230 244 243 235 233 247 259 242 209 204 145 87 11 351 86 39 344 181 178 185 188 193 198 195 188 183 183 181 177 178 178 178 179
341 340 341 341 338 332 330 333 356 355 343 338 360 360 4 8 6 15 50 73 299 283 252 247 258 224 239 156 158 133 112 270 239 219 165 127 131 92 123 211 185 209 221 199 197 200 226 236 220 201 219 231 233 243 236 214 235 257 237 229 235 249 252 227 180 125 89 338 231 169 109 292 239 195 191 183 189 195 190 185 183 185 183 176 178 180 180 181
341 340 341 342 339 334 334 340 349 345 337 336 3 357 355 356 354 1 42 62 329 274 207 151 56 199 291 136 149 68 48 298 273 264 105 116 132 110 128 292 8 228 237 204 202 195 228 237 220 198 207 218 225 241 239 209 211 257 241 230 235 244 256 247 208 157 153 206 199 176 156 217 237 211 202 188 189 189 185 191 189 185 184 180 180 181 180 181
340 340 340 340 340 340 337 311 330 339 329 330 350 353 350 343 340 347 46 64 342 275 166 310 345 188 268 173 111 75 84 257 294 325 131 138 126 97 142 276 331 274 309 42 258 232 241 246 230 213 203 207 215 235 238 207 186 244 252 246 252 257 260 254 229 192 210 188 156 156 128 125 208 220 205 188 187 191 190 195 193 191 189 185 184 181 179 181
339 339 339 337 340 340 316 303 325 333 337 340 344 346 341 333 333 351 92 74 333 256 146 275 317 295 276 43 86 122 195 218 5 300 240 156 135 79 123 244 208 251 286 85 237 269 277 306 284 280 230 212 206 222 230 213 194 235 252 256 259 256 254 250 230 214 206 117 156 187 139 115 234 224 196 185 189 198 200 199 196 194 192 188 188 184 181 182
337 338 338 334 337 339 303 310 308 307 343 350 348 339 332 331 341 46 94 74 67 296 303 4 344 280 275 55 13 213 210 160 154 259 271 150 192 81 157 234 203 282 280 150 215 261 253 288 300 312 276 232 221 226 222 207 215 235 245 258 268 267 264 145 167 207 125 116 197 214 171 155 254 220 176 180 197 207 206 203 199 195 193 191 190 186 184 182
335 337 338 332 333 335 296 300 283 313 353 351 340 332 327 336 31 73 48 102 126 301 276 345 324 270 97 57 305 260 190 159 158 248 355 27 348 29 140 264 42 6 319 2 260 265 269 270 268 268 236 231 251 258 221 196 214 238 255 270 286 305 328 66 95 99 101 198 227 210 187 191 250 238 176 182 203 206 202 199 196 195 195 194 192 190 186 183
334 338 338 328 324 311 280 289 282 325 337 333 333 332 338 13 78 89 61 117 142 320 290 238 287 253 110 117 258 250 204 27 77 57 31 24 16 14 356 351 22 22 359 354 322 305 318 351 281 257 270 329 303 308 312 250 213 214 224 14 333 326 349 13 9 48 152 256 246 201 175 183 225 246 194 200 212 207 198 194 189 189 195 194 192 191 189 184
336 341 338 324 315 290 259 282 324 312 320 336 340 346 41 53 37 80 23 346 2 310 277 228 223 149 87 48 40 124 99 25 44 75 77 64 53 41 33 19 1 25 10 337 337 335 323 336 315 277 43 28 2 348 338 338 17 73 71 60 51 335 338 339 333 312 207 248 240 191 142 175 227 238 203 207 218 213 204 203 192 188 191 192 192 190 189 185
342 343 337 316 305 292 275 292 324 318 329 342 352 26 81 76 43 21 354 350 30 232 272 334 9 37 73 48 17 81 87 38 8 53 64 69 70 52 38 25 16 47 114 350 15 360 328 329 353 2 23 19 25 40 360 328 345 347 136 106 113 139 357 276 276 293 255 266 261 192 137 209 256 256 211 207 217 214 204 208 201 193 191 192 194 190 187 186
348 345 331 297 291 295 288 289 303 304 320 342 16 64 60 74 36 6 25 3 342 332 346 353 335 339 49 70 274 44 50 6 24 53 49 50 52 34 29 20 13 20 93 53 38 6 353 312 1 21 339 339 23 47 335 285 307 296 197 140 136 158 162 213 221 228 247 277 297 6 120 194 210 243 217 204 214 212 202 205 198 195 197 192 188 185 186 189
351 343 315 289 289 296 290 279 286 292 313 355 50 66 61 69 338 350 12 328 325 348 344 347 352 355 9 12 24 58 64 21 48 66 64 59 52 26 28 14 5 6 22 51 13 336 16 254 299 2 303 8 13 354 332 339 322 286 191 113 151 185 169 188 204 190 189 286 307 328 216 212 207 256 246 205 213 213 204 204 194 193 195 182 177 184 189 191
353 350 316 292 300 294 264 255 261 264 306 47 58 61 76 84 332 345 337 313 334 345 333 356 32 34 2 356 355 17 54 56 57 81 81 74 59 28 25 15 5 9 25 65 34 357 11 275 311 343 20 56 16 334 341 15 324 299 350 330 232 209 151 152 264 242 144 221 273 274 261 281 308 295 270 193 197 215 212 201 192 192 185 174 183 190 190 192
353 354 328 304 320 89 150 160 217 217 105 74 73 67 78 66 348 342 338 328 333 353 9 35 27 10 8 24 12 360 14 22 28 57 70 68 45 8 3 10 5 6 14 55 116 36 347 275 336 8 0 16 357 324 316 59 33 9 321 300 292 294 117 121 275 321 36 197 269 279 261 294 339 298 289 225 187 207 216 208 194 187 178 179 190 191 190 192
345 344 323 311 21 94 80 107 173 170 82 59 55 54 55 38 356 2 10 348 344 16 45 61 25 20 31 37 17 4 18 17 4 36 64 56 33 350 354 5 358 358 4 27 58 356 350 298 328 26 9 343 345 348 349 358 14 50 303 314 333 331 314 55 133 230 264 206 270 292 282 275 227 242 286 280 235 206 208 211 196 182 181 186 192 192 192 192
341 350 329 331 87 77 52 121 154 80 63 47 39 56 64 46 17 23 25 11 22 42 51 51 32 45 45 43 27 8 33 43 19 40 64 42 25 339 358 1 348 356 9 41 47 325 13 16 291 346 10 345 341 25 20 339 347 4 6 355 355 299 260 262 195 189 183 205 241 305 314 284 248 268 294 286 281 244 203 208 197 183 187 190 190 190 190 189
354 29 293 328 31 57 32 110 86 53 71 64 57 50 37 46 29 23 20 19 41 56 39 31 33 51 43 36 41 13 34 56 44 57 53 31 94 23 8 6 355 357 12 46 45 356 20 45 293 317 355 352 12 44 28 352 339 346 358 3 356 339 319 293 258 205 151 176 194 237 271 274 339 334 331 325 317 305 222 208 202 190 191 192 190 188 188 188
11 45 265 331 6 262 18 52 46 68 128 358 43 38 35 47 32 24 21 22 40 53 52 58 52 52 33 28 43 20 23 56 52 65 59 33 69 51 1 359 3 4 10 33 37 16 11 21 314 327 339 330 6 17 336 302 284 292 5 2 350 339 336 340 314 306 43 188 194 192 233 275 15 357 338 335 325 315 261 211 207 198 193 193 191 188 187 188
32 33 279 345 345 271 72 45 287 157 106 79 65 43 42 54 33 23 20 24 38 34 40 59 51 45 40 30 41 32 39 56 39 59 83 57 55 46 1 6 11 23 48 41 7 350 11 51 339 321 295 289 294 290 289 292 274 161 75 16 349 340 351 360 313 309 328 307 263 211 219 268 354 1 350 341 331 329 300 212 201 200 194 192 192 190 189 189
46 307 316 359 352 272 89 36 316 17 58 93 83 52 40 54 44 32 27 30 36 18 29 48 37 41 44 31 33 31 36 62 53 60 86 71 53 38 18 17 14 20 51 52 339 336 353 52 5 318 289 298 308 295 74 39 38 56 24 5 354 343 337 322 286 272 301 331 354 325 241 291 345 350 349 343 343 349 339 241 201 198 195 191 191 190 189 190
351 274 300 5 13 26 95 40 356 39 38 60 72 59 42 42 45 43 38 39 37 22 40 48 39 48 45 37 50 42 35 63 67 59 62 63 57 38 23 16 14 26 39 22 306 324 340 56 51 357 329 334 352 4 11 15 25 27 334 337 336 330 330 324 318 341 330 37 43 319 243 304 327 329 343 350 355 2 355 344 304 175 196 196 191 190 189 188
347 289 257 352 17 39 71 33 74 73 46 53 67 67 61 41 36 42 42 44 41 40 62 51 45 59 46 41 58 48 42 57 66 65 64 54 60 39 15 0 8 40 40 25 32 73 107 92 102 90 34 320 323 336 321 323 340 335 315 322 326 330 336 334 338 4 349 341 16 336 240 302 316 332 353 357 0 4 357 357 19 50 55 97 140 150 168 176
20 28 301 328 6 32 33 4 57 69 43 56 68 47 47 48 29 30 31 31 30 43 64 49 38 52 42 39 57 45 35 45 49 64 74 68 115 13 349 357 12 24 33 30 26 33 74 50 100 145 158 207 235 248 255 266 291 303 308 317 321 325 332 336 338 328 285 317 324 221 196 323 329 349 1 355 358 2 357 2 19 37 50 63 71 70 67 56
80 36 7 334 331 8 17 3 33 56 39 57 70 19 41 47 28 15 14 19 28 34 57 51 41 51 40 30 56 50 24 36 42 36 28 35 86 351 358 17 22 22 29 28 19 40 71 6 308 183 194 229 241 255 271 275 280 288 299 313 315 313 320 325 310 286 290 332 309 266 328 350 336 357 4 349 355 2 354 359 12 20 37 60 67 66 65 58
54 109 346 358 274 1 17 350 27 50 39 43 58 45 52 49 34 17 2 12 30 28 44 49 37 46 49 41 58 47 23 35 28 12 5 6 10 8 3 3 9 22 31 22 12 75 106 226 268 331 308 284 283 298 304 301 297 293 291 292 295 299 304 304 291 285 290 280 265 282 330 4 343 2 9 357 7 13 356 351 1 8 20 44 57 58 58 55
32 24 323 3 43 299 328 356 54 58 37 29 47 47 55 54 34 20 6 11 23 22 42 55 27 27 36 44 64 51 28 51 25 360 10 6 359 11 5 335 335 9 32 27 6 88 113 270 304 346 338 319 325 322 316 318 320 317 307 292 288 292 292 290 287 287 285 258 255 280 318 32 13 359 8 19 28 26 9 1 1 2 9 26 44 50 49 47
28 338 323 2 2 334 355 27 58 68 39 27 49 40 50 61 34 8 25 38 25 14 36 51 30 20 21 31 64 66 40 67 51 345 8 8 346 348 347 261 287 331 349 2 324 76 101 320 318 2 3 329 332 332 329 328 325 325 322 308 297 293 287 281 280 283 283 276 284 302 327 28 351 337 352 38 45 35 28 24 12 360 359 10 29 39 40 39
356 291 324 40 3 354 25 39 46 74 45 20 44 35 43 60 35 6 32 36 34 30 30 40 37 26 26 37 53 47 9 23 18 307 298 316 288 253 245 249 270 312 318 303 318 30 105 282 331 32 19 312 332 344 338 334 333 330 316 302 310 313 302 290 288 291 288 286 326 347 14 325 309 319 348 48 59 52 40 35 26 6 355 3 16 23 27 32
2 333 353 67 77 5 33 64 41 67 61 20 36 43 48 68 53 48 47 14 19 20 8 38 55 37 36 48 43 337 291 295 284 279 279 271 261 252 247 257 263 258 222 173 340 329 134 143 352 38 10 300 328 345 341 345 345 319 270 314 347 333 312 305 311 317 308 259 103 46 53 297 285 302 11 37 50 56 53 45 38 16 359 3 9 9 12 20